Météo par heure à Julich

Ce jour, 20 Juin, Dimanche

Heure Température Précipitation Vent Pression Humidité
00:00 +21°C° 0 mm 3 m/s 746 mmHg 95%
01:00 +20°C° 0.3 mm 3 m/s 746 mmHg 93%
02:00 +20°C° 0.3 mm 4 m/s 746 mmHg 91%
03:00 +20°C° 0.3 mm 5 m/s 746 mmHg 89%
04:00 +20°C° 0 mm 5 m/s 747 mmHg 87%
05:00 +20°C° 0 mm 5 m/s 747 mmHg 85%
06:00 +20°C° 0 mm 5 m/s 748 mmHg 83%
07:00 +21°C° 0 mm 5 m/s 748 mmHg 74%
08:00 +22°C° 0 mm 5 m/s 748 mmHg 66%
09:00 +25°C° 0 mm 5 m/s 748 mmHg 58%
10:00 +25°C° 0 mm 5 m/s 748 mmHg 55%
11:00 +26°C° 0 mm 4 m/s 748 mmHg 52%
12:00 +27°C° 0 mm 4 m/s 748 mmHg 49%
13:00 +27°C° 0 mm 3 m/s 747 mmHg 49%
14:00 +27°C° 0 mm 2 m/s 747 mmHg 48%
15:00 +27°C° 0 mm 2 m/s 747 mmHg 48%
16:00 +27°C° 0 mm 2 m/s 746 mmHg 54%
17:00 +26°C° 0 mm 2 m/s 746 mmHg 59%
18:00 +25°C° 0 mm 2 m/s 746 mmHg 64%
19:00 +24°C° 0 mm 2 m/s 746 mmHg 65%
20:00 +24°C° 0 mm 2 m/s 745 mmHg 66%
21:00 +23°C° 0 mm 2 m/s 745 mmHg 67%
22:00 +21°C° 0.3 mm 2 m/s 745 mmHg 74%
23:00 +20°C° 0.3 mm 2 m/s 745 mmHg 81%

Demain, 21 Juin, Lundi

Heure Température Précipitation Vent Pression Humidité
00:00 +19°C° 0.3 mm 2 m/s 744 mmHg 88%
01:00 +19°C° 0.3 mm 2 m/s 744 mmHg 90%
02:00 +19°C° 0.3 mm 2 m/s 744 mmHg 92%
03:00 +18°C° 0.3 mm 3 m/s 744 mmHg 95%
04:00 +19°C° 0.2 mm 3 m/s 744 mmHg 92%
05:00 +19°C° 0.2 mm 4 m/s 744 mmHg 90%
06:00 +19°C° 0.2 mm 5 m/s 745 mmHg 88%
07:00 +20°C° 0.1 mm 5 m/s 745 mmHg 83%
08:00 +20°C° 0.1 mm 6 m/s 745 mmHg 78%
09:00 +21°C° 0.1 mm 6 m/s 745 mmHg 74%
10:00 +22°C° 0 mm 7 m/s 746 mmHg 70%
11:00 +22°C° 0 mm 7 m/s 746 mmHg 66%
12:00 +22°C° 0 mm 8 m/s 747 mmHg 62%
13:00 +22°C° 0 mm 7 m/s 747 mmHg 61%
14:00 +22°C° 0 mm 6 m/s 747 mmHg 61%
15:00 +23°C° 0 mm 6 m/s 747 mmHg 61%
16:00 +21°C° 0 mm 5 m/s 748 mmHg 66%
17:00 +20°C° 0 mm 5 m/s 748 mmHg 71%
18:00 +18°C° 0 mm 4 m/s 749 mmHg 76%
19:00 +17°C° 0 mm 4 m/s 749 mmHg 80%
20:00 +14°C° 0 mm 3 m/s 750 mmHg 84%
21:00 +13°C° 0 mm 3 m/s 750 mmHg 89%
22:00 +14°C° 0 mm 2 m/s 750 mmHg 87%
23:00 +14°C° 0 mm 2 m/s 750 mmHg 86%

Après-demain, 22 Juin, Mardi

Heure Température Précipitation Vent Pression Humidité
00:00 +14°C° 0 mm 2 m/s 751 mmHg 84%
01:00 +14°C° 0 mm 2 m/s 751 mmHg 86%
02:00 +14°C° 0 mm 2 m/s 751 mmHg 88%
03:00 +14°C° 0 mm 2 m/s 751 mmHg 90%
04:00 +13°C° 0 mm 3 m/s 751 mmHg 88%
05:00 +13°C° 0 mm 3 m/s 751 mmHg 86%
06:00 +13°C° 0 mm 3 m/s 752 mmHg 85%
07:00 +14°C° 0.2 mm 3 m/s 752 mmHg 84%
08:00 +14°C° 0.2 mm 3 m/s 752 mmHg 83%
09:00 +14°C° 0.2 mm 3 m/s 752 mmHg 83%
10:00 +14°C° 0.8 mm 4 m/s 752 mmHg 84%
11:00 +14°C° 0.8 mm 4 m/s 752 mmHg 86%
12:00 +14°C° 0.8 mm 4 m/s 753 mmHg 87%
13:00 +15°C° 0.1 mm 4 m/s 752 mmHg 84%
14:00 +15°C° 0.1 mm 4 m/s 752 mmHg 80%
15:00 +16°C° 0.1 mm 5 m/s 752 mmHg 77%
16:00 +17°C° 0.2 mm 4 m/s 753 mmHg 80%
17:00 +15°C° 0.2 mm 4 m/s 753 mmHg 82%
18:00 +16°C° 0.2 mm 3 m/s 753 mmHg 85%
19:00 +14°C° 0.3 mm 3 m/s 753 mmHg 87%
20:00 +13°C° 0.3 mm 3 m/s 753 mmHg 90%
21:00 +13°C° 0.3 mm 3 m/s 754 mmHg 92%
22:00 +13°C° 0.3 mm 3 m/s 754 mmHg 93%
23:00 +12°C° 0.3 mm 3 m/s 754 mmHg 94%

23 Juin, Mercredi

Heure Température Précipitation Vent Pression Humidité
00:00 +12°C° 0.3 mm 4 m/s 754 mmHg 95%
01:00 +11°C° 0.2 mm 3 m/s 755 mmHg 95%
02:00 +11°C° 0.2 mm 3 m/s 755 mmHg 95%
03:00 +11°C° 0.2 mm 3 m/s 755 mmHg 96%
04:00 +12°C° 0.1 mm 2 m/s 755 mmHg 95%
05:00 +12°C° 0.1 mm 2 m/s 755 mmHg 95%
06:00 +12°C° 0.1 mm 2 m/s 755 mmHg 94%
07:00 +12°C° 0.1 mm 2 m/s 756 mmHg 93%
08:00 +12°C° 0.1 mm 2 m/s 756 mmHg 91%
09:00 +12°C° 0.1 mm 2 m/s 756 mmHg 89%
10:00 +13°C° 0 mm 2 m/s 756 mmHg 87%
11:00 +13°C° 0 mm 2 m/s 756 mmHg 86%
12:00 +13°C° 0 mm 2 m/s 756 mmHg 85%
13:00 +14°C° 0 mm 2 m/s 756 mmHg 83%
14:00 +14°C° 0 mm 2 m/s 756 mmHg 82%
15:00 +14°C° 0 mm 2 m/s 756 mmHg 81%
16:00 +14°C° 0 mm 2 m/s 756 mmHg 80%
17:00 +15°C° 0 mm 1 m/s 756 mmHg 79%
18:00 +15°C° 0 mm 1 m/s 756 mmHg 78%
19:00 +14°C° 0 mm 1 m/s 756 mmHg 79%
20:00 +14°C° 0 mm 1 m/s 756 mmHg 81%
21:00 +13°C° 0 mm 1 m/s 757 mmHg 83%
22:00 +13°C° 0 mm 1 m/s 757 mmHg 84%
23:00 +12°C° 0 mm 1 m/s 757 mmHg 85%

24 Juin, Jeudi

Heure Température Précipitation Vent Pression Humidité
00:00 +12°C° 0 mm 1 m/s 757 mmHg 86%
01:00 +12°C° 0 mm 1 m/s 756 mmHg 88%
02:00 +12°C° 0 mm 1 m/s 756 mmHg 89%
03:00 +11°C° 0 mm 1 m/s 756 mmHg 91%
04:00 +12°C° 0 mm 1 m/s 756 mmHg 89%
05:00 +13°C° 0 mm 1 m/s 756 mmHg 86%
06:00 +14°C° 0 mm 1 m/s 757 mmHg 84%
07:00 +15°C° 0 mm 2 m/s 757 mmHg 79%
08:00 +16°C° 0 mm 2 m/s 757 mmHg 74%
09:00 +17°C° 0 mm 2 m/s 757 mmHg 69%
10:00 +18°C° 0 mm 2 m/s 757 mmHg 67%
11:00 +19°C° 0 mm 2 m/s 756 mmHg 64%
12:00 +20°C° 0 mm 2 m/s 756 mmHg 61%
13:00 +21°C° 0 mm 1 m/s 756 mmHg 61%
14:00 +21°C° 0 mm 1 m/s 756 mmHg 62%
15:00 +21°C° 0 mm 1 m/s 756 mmHg 62%
16:00 +21°C° 0 mm 1 m/s 756 mmHg 65%
17:00 +20°C° 0 mm 1 m/s 756 mmHg 68%
18:00 +20°C° 0 mm 1 m/s 756 mmHg 71%
19:00 +19°C° 0 mm 1 m/s 756 mmHg 75%
20:00 +16°C° 0 mm 1 m/s 756 mmHg 79%
21:00 +15°C° 0 mm 1 m/s 757 mmHg 83%
22:00 +14°C° 0 mm 1 m/s 757 mmHg 85%
23:00 +13°C° 0 mm 1 m/s 757 mmHg 87%

25 Juin, Vendredi

Heure Température Précipitation Vent Pression Humidité
00:00 +13°C° 0 mm 1 m/s 757 mmHg 89%
01:00 +13°C° 0 mm 1 m/s 757 mmHg 90%
02:00 +12°C° 0 mm 1 m/s 757 mmHg 91%
03:00 +12°C° 0 mm 1 m/s 757 mmHg 92%
04:00 +13°C° 0 mm 1 m/s 757 mmHg 88%
05:00 +14°C° 0 mm 2 m/s 757 mmHg 84%
06:00 +15°C° 0 mm 2 m/s 757 mmHg 81%
07:00 +16°C° 0 mm 2 m/s 757 mmHg 71%
08:00 +17°C° 0 mm 2 m/s 757 mmHg 62%
09:00 +19°C° 0 mm 2 m/s 757 mmHg 52%
10:00 +20°C° 0 mm 2 m/s 757 mmHg 49%
11:00 +21°C° 0 mm 2 m/s 757 mmHg 46%
12:00 +23°C° 0 mm 2 m/s 757 mmHg 42%
13:00 +23°C° 0 mm 2 m/s 757 mmHg 43%
14:00 +23°C° 0 mm 2 m/s 757 mmHg 43%
15:00 +24°C° 0 mm 2 m/s 756 mmHg 43%
16:00 +23°C° 0 mm 2 m/s 756 mmHg 49%
17:00 +23°C° 0 mm 2 m/s 756 mmHg 56%
18:00 +21°C° 0 mm 2 m/s 756 mmHg 62%
19:00 +19°C° 0 mm 2 m/s 756 mmHg 70%
20:00 +18°C° 0 mm 1 m/s 756 mmHg 78%
21:00 +16°C° 0 mm 1 m/s 756 mmHg 86%
22:00 +15°C° 0 mm 1 m/s 756 mmHg 87%
23:00 +15°C° 0 mm 1 m/s 756 mmHg 89%
Voir plus

Nous avons besoin de votre consentement

Meteoprog et ses fournisseurs de services peuvent stocker et accéder à des données personnelles telles que des cookies, des identifiants d'appareils ou d'autres technologies similaires sur votre appareil et traiter ces données pour personnaliser le contenu et les publicités, ainsi que pour fournir des fonctionnalités de médias sociaux et analyser le trafic.

  • Stocker et/ou accéder à des informations sur votre appareil

    Des cookies, des identifiants d'appareils ou d'autres informations peuvent être stockés ou accessibles sur votre appareil aux fins indiquées ci-dessus.

  • Annonces et contenus personnalisés, mesure des annonces et des contenus, connaissance de l'audience et développement de produits

    Les annonces et le contenu peuvent être personnalisés en fonction d'un profil. D'autres données peuvent être ajoutées pour mieux personnaliser les annonces et le contenu. Les performances des publicités et du contenu peuvent être mesurées. Il est possible d'obtenir des informations sur le public qui a vu les publicités et le contenu. Ces données peuvent être utilisées pour développer ou améliorer l'expérience de l'utilisateur, les systèmes et les logiciels.

En cliquant sur "J'accepte", vous autorisez l'utilisation de cookies, des identifiants d'appareils, des balises web ou d'autres technologies similaires. Vos paramètres peuvent être modifiés dans le navigateur de votre appareil.

Dans certains cas, des intérêts légitimes peuvent être invoqués plutôt qu'un consentement. Vous pouvez en savoir plus à ce sujet dans notre Politique de confidentialité et de cookies.